Date,TemperatureHighF,TemperatureAvgF,TemperatureLowF,DewpointHighF,DewpointAvgF,DewpointLowF,HumidityHigh,HumidityAvg,HumidityLow,PressureMaxIn,PressureMinIn,WindSpeedMaxMPH,WindSpeedAvgMPH,GustSpeedMaxMPH,PrecipitationSumIn
2013-1-1,36,33,30,33,32,30,98,95,91,30.47,30.33,4,0,4,0.41
2013-1-2,36,31,28,33,29,24,99,92,80,30.36,30.21,4,0,4,0.00
2013-1-3,39,32,27,33,27,24,90,81,61,30.21,30.12,8,1,8,0.41
2013-1-4,44,39,35,43,37,33,98,94,90,30.36,30.18,5,0,5,0.41
2013-1-5,40,38,35,36,34,32,96,86,79,30.21,30.12,8,1,8,0.00
2013-1-6,43,40,34,42,37,32,97,91,86,30.24,30.00,13,2,13,0.41
2013-1-7,50,46,42,50,45,41,100,99,97,30.21,29.94,20,2,20,0.41
2013-1-8,51,48,43,51,47,43,100,99,92,30.21,29.85,20,2,20,0.41
2013-1-9,50,42,34,47,40,34,99,93,85,29.97,29.65,15,2,15,0.37
2013-1-10,40,35,32,38,35,32,100,98,91,30.12,29.97,3,0,3,0.29
2013-1-11,35,32,28,35,31,27,99,93,82,30.30,30.09,2,0,2,0.29
2013-1-12,33,29,27,30,28,25,98,94,87,30.41,30.30,2,0,2,0.29
2013-1-13,32,27,24,29,25,23,95,92,86,30.50,30.41,4,0,4,0.29
2013-1-14,33,29,25,32,28,23,97,93,89,30.56,30.47,9,2,9,0.29
2013-1-15,36,34,32,34,33,32,99,96,94,30.71,30.56,5,0,5,0.29
2013-1-16,36,34,32,35,33,31,97,94,91,30.68,30.50,5,0,5,0.00
2013-1-17,37,33,31,35,32,30,99,96,94,30.50,30.30,6,0,6,0.00
2013-1-18,39,32,29,38,32,29,100,99,98,30.33,30.24,1,0,1,0.00
2013-1-19,35,32,30,34,32,30,100,98,94,30.36,30.27,4,0,4,0.00
2013-1-20,34,32,30,33,31,29,99,98,96,30.39,30.24,4,0,4,0.00
2013-1-21,35,30,26,33,28,25,99,94,83,30.27,30.12,6,0,6,0.00
2013-1-22,38,32,26,32,28,24,92,85,76,30.15,29.91,7,0,7,0.00
2013-1-23,36,35,34,33,30,27,94,83,75,30.18,29.88,6,1,6,0.04
2013-1-24,42,38,34,41,37,33,99,96,90,30.24,30.09,9,1,9,0.13
2013-1-25,49,44,42,48,43,41,100,98,95,30.09,29.91,8,0,8,0.00
2013-1-26,45,41,38,44,40,38,99,97,92,30.06,29.88,10,0,10,0.08
2013-1-27,41,39,36,40,39,35,100,97,93,30.12,30.03,7,0,7,0.21
2013-1-28,43,41,39,42,41,39,100,99,97,30.18,30.06,7,1,7,0.62
2013-1-29,48,45,42,47,44,42,100,99,96,30.44,30.18,8,1,8,0.08
2013-1-30,48,46,43,48,46,43,100,99,99,30.44,30.39,6,0,6,0.13
2013-1-31,49,46,41,48,45,41,100,99,95,30.44,30.33,6,0,6,0.04